Location: Alladorf
(49.9620°N, 11.3790°E)
Time: 20:36:03
(UTC+00:00)

ATLAS 2AS CENTAUR R/B - Pass Details

Date: 29 November 2020
Orbit: 943 x 1268 km, 63.7° (Epoch: 22 January)

Event Time Altitude Azimuth Distance (km) Brightness Sun altitude
Rises 06:03:52 0° 258° (WSW) 4,224 5.3 -7.1°
Reaches altitude 10° 06:06:55 10° 265° (W) 3,259 4.7 -6.7°
Maximum altitude 06:14:19 40° 334° (NNW) 1,761 3.5 -5.6°
Drops below altitude 10° 06:21:30 10° 42° (NE) 3,161 5.4 -4.6°
Sets 06:24:25 0° 50° (NE) 4,085 6.0 -4.2°
